Appleton, WI

5:50 PM CST on November 18, 2019 (GMT -0600)
Outagamie County Regional

Weather History for KATW - September, 2019

Change the Weather History Date:

Friday, September 20, 2019

  Actual Average Record
Temperature  
Mean Temperature 68 °F -  
Max Temperature 78 °F 67 °F 83 °F (1985)
Min Temperature 59 °F 51 °F 33 °F (1962)
Cooling Degree Days 4    
Growing Degree Days 18 (Base 50)    
Moisture  
Dew Point 63 °F    
Average Humidity 91    
Maximum Humidity 100    
Minimum Humidity 54    
Precipitation  
Precipitation 0.00 in - - ()
Sea Level Pressure  
Sea Level Pressure 30.09 in    
Wind  
Wind Speed 1 mph ()    
Max Wind Speed 8 mph    
Max Gust Speed -    
Visibility 4.2 miles    
Events Fog    
Averages and records for this station are not official NWS values.
T = Trace of Precipitation, MM = Missing Value Source: Averaged Metar Reports

Daily Weather History Graph

Daily Weather History Graph

Search for Another Location

Airport or City:

Astronomy

Sep. 20, 2019 Rise Set
Actual Time 6:38 AM CDT 6:55 PM CDT
Civil Twilight 6:09 AM CDT 7:24 PM CDT
Nautical Twilight 5:35 AM CDT 7:58 PM CDT
Astronomical Twilight 5:00 AM CDT 8:33 PM CDT
Moon 10:32 PM CDT (9/20) 12:56 PM CDT (9/20)
Length of Visible Light 13h 14m
Length of Day
12h 16m
Waning Gibbous, 65% of the Moon is Illuminated
Sep 20
Waning Gibbous
Sep 21
Last Quarter
Sep 28
New
Oct 5
First Quarter
Oct 13
Full

Hourly Weather History & Observations

Time (CDT) Temp. Dew Point Humidity Pressure Visibility Wind Dir Wind Speed Gust Speed Precip Events Conditions
12:15 AM 62.6 °F 62.6 °F 100% 30.07 in 3.0 mi Calm Calm - N/A   Clear
12:35 AM 62.6 °F 62.6 °F 100% 30.07 in 1.0 mi Calm Calm - N/A   Mist
12:55 AM 62.6 °F 62.6 °F 100% 30.07 in 0.2 mi Calm Calm - N/A Fog Fog
1:15 AM 62.6 °F 62.6 °F 100% 30.08 in 0.2 mi Calm Calm - N/A Fog Fog
1:35 AM 60.8 °F 60.8 °F 100% 30.08 in 0.2 mi Calm Calm - N/A Fog Fog
1:55 AM 62.6 °F 62.6 °F 100% 30.08 in 0.2 mi Calm Calm - N/A Fog Fog
2:15 AM 60.8 °F 60.8 °F 100% 30.08 in 0.2 mi West 3.5 mph - N/A Fog Fog
2:35 AM 60.8 °F 60.8 °F 100% 30.09 in 0.2 mi West 3.5 mph - N/A Fog Fog
2:55 AM 60.8 °F 60.8 °F 100% 30.09 in 0.2 mi Calm Calm - N/A Fog Fog
3:15 AM 60.8 °F 60.8 °F 100% 30.09 in 0.8 mi Calm Calm - N/A   Overcast
3:35 AM 62.6 °F 62.6 °F 100% 30.09 in 0.2 mi Calm Calm - N/A Fog Fog
3:55 AM 62.6 °F 62.6 °F 100% 30.09 in 0.2 mi Calm Calm - N/A Fog Fog
4:15 AM 62.6 °F 62.6 °F 100% 30.09 in 0.2 mi Calm Calm - N/A Fog Fog
4:35 AM 62.6 °F 62.6 °F 100% 30.09 in 0.2 mi Calm Calm - N/A Fog Fog
4:55 AM 62.6 °F 62.6 °F 100% 30.09 in 0.5 mi Calm Calm - N/A Fog Fog
5:15 AM 60.8 °F 60.8 °F 100% 30.09 in 1.2 mi Calm Calm - N/A   Scattered Clouds
5:20 AM 60.8 °F 60.8 °F 100% 30.09 in 0.8 mi Calm Calm - N/A   Overcast
5:45 AM 59.0 °F 59.0 °F 100% 30.10 in 0.5 mi Calm Calm - N/A Fog Fog
6:20 AM 60.8 °F 60.8 °F 100% 30.11 in 0.2 mi Calm Calm - N/A Fog Fog
6:45 AM 60.8 °F 60.8 °F 100% 30.11 in 0.1 mi Calm Calm - N/A Fog Fog
7:45 AM 62.6 °F 62.6 °F 100% 30.12 in 0.2 mi Calm Calm - N/A Fog Fog
8:05 AM 64.4 °F 64.4 °F 100% 30.13 in 0.5 mi NNE 4.6 mph - N/A Fog Fog
8:45 AM 64.4 °F 64.4 °F 100% 30.13 in 0.4 mi NNE 4.6 mph - N/A Fog Fog
9:25 AM 66.2 °F 66.2 °F 100% 30.13 in 0.8 mi NE 3.5 mph - N/A   Mist
9:45 AM 66.2 °F 66.2 °F 100% 30.14 in 1.5 mi Calm Calm - N/A   Mist
10:00 AM 66.2 °F 66.2 °F 100% 30.14 in 3.0 mi Calm Calm - N/A   Mostly Cloudy
10:25 AM 68.0 °F 68.0 °F 100% 30.14 in 6.0 mi Variable 3.5 mph - N/A   Mostly Cloudy
11:45 AM 71.6 °F 68.0 °F 88% 30.12 in 10.0 mi SE 5.8 mph - N/A   Mostly Cloudy
12:45 PM 75.2 °F 68.0 °F 78% 30.11 in 10.0 mi SE 6.9 mph - N/A   Mostly Cloudy
1:45 PM 75.2 °F 62.6 °F 65% 30.10 in 10.0 mi SSE 5.8 mph - N/A   Scattered Clouds
2:45 PM 78.8 °F 60.8 °F 54% 30.09 in 10.0 mi SSE 5.8 mph - N/A   Scattered Clouds
3:45 PM 78.8 °F 60.8 °F 54% 30.08 in 10.0 mi ESE 5.8 mph - N/A   Mostly Cloudy
4:45 PM 77.0 °F 60.8 °F 57% 30.08 in 10.0 mi Calm Calm - N/A   Mostly Cloudy
5:45 PM 78.8 °F 60.8 °F 54% 30.08 in 10.0 mi Calm Calm - N/A   Scattered Clouds
6:45 PM 75.2 °F 60.8 °F 61% 30.08 in 10.0 mi Calm Calm - N/A   Scattered Clouds
7:45 PM 73.4 °F 64.4 °F 73% 30.08 in 10.0 mi Calm Calm - N/A   Scattered Clouds
8:45 PM 71.6 °F 64.4 °F 78% 30.09 in 10.0 mi Calm Calm - N/A   Scattered Clouds
9:45 PM 69.8 °F 66.2 °F 88% 30.09 in 10.0 mi Calm Calm - N/A   Scattered Clouds
10:45 PM 68.0 °F 66.2 °F 94% 30.08 in 10.0 mi Calm Calm - N/A   Scattered Clouds
10:55 PM 68.0 °F 64.4 °F 88% 30.08 in 10.0 mi SE 6.9 mph - N/A   Clear
11:15 PM 66.2 °F 64.4 °F 94% 30.08 in 10.0 mi SE 6.9 mph - N/A   Clear
11:35 PM 66.2 °F 64.4 °F 94% 30.07 in 10.0 mi SE 8.1 mph - N/A   Clear
11:55 PM 66.2 °F 62.6 °F 88% 30.07 in 10.0 mi SE 8.1 mph - N/A   Clear